DW4433 Weather Reports


time (UTC)temp
C
wind
direction
speed
KPH
gust
KPH
rain 1hr
cm
rain 24hr
cm
rain mn
cm
humidity
%
barometer
mb
20260510113029 13 34 1.6 9.7 0.00 0.00 0.00 100 1014.6
20260510111519 12 316 1.6 16.1 0.00 0.00 0.00 100 1014.7
20260510110019 12 59 0.0 9.7 0.00 0.00 0.00 100 1014.7
20260510104510 12 42 1.6 16.1 0.00 0.00 0.00 100 1014.7
20260510103007 13 44 0.0 14.5 0.00 0.00 0.00 100 1014.7
20260510101600 13 343 1.6 16.1 0.00 0.00 0.00 100 1014.8
20260510100057 13 47 1.6 19.3 0.00 0.00 0.00 100 1014.8
20260510094553 13 67 0.0 16.1 0.00 0.00 0.00 100 1014.9
20260510093101 13 10 0.0 12.9 0.00 0.00 0.00 100 1015.0
20260510091540 13 15 3.2 9.7 0.00 0.00 0.00 100 1015.1
20260510090036 13 51 3.2 17.7 0.00 0.00 0.00 100 1015.1
20260510084532 13 294 0.0 12.9 0.00 0.00 0.00 100 1014.9
20260510083035 12 21 0.0 8.0 0.00 0.00 0.00 100 1015.0
20260510081535 12 11 1.6 14.5 0.00 0.00 0.00 100 1015.0
20260510080016 12 23 0.0 6.4 0.00 0.00 0.00 100 1015.2
20260510074512 11 94 0.0 6.4 0.00 0.00 0.00 100 1015.3
20260510073007 11 309 0.0 8.0 0.00 0.00 0.00 100 1015.4
20260510071501 11 42 0.0 8.0 0.00 0.00 0.00 100 1015.5
20260510070057 11 59 1.6 11.3 0.00 0.00 0.00 100 1015.4
20260510064557 11 53 0.0 16.1 0.00 0.00 0.00 100 1015.4
20260510063048 11 53 0.0 12.9 0.00 0.00 0.00 100 1015.5
20260510061545 11 355 0.0 11.3 0.00 0.00 0.00 100 1015.5
20260510060046 11 55 0.0 12.9 0.00 0.00 0.00 100 1015.5
20260510054535 11 36 1.6 11.3 0.00 0.00 0.00 100 1015.3
20260510053039 11 26 0.0 9.7 0.00 0.00 0.00 100 1015.2
20260510051524 11 15 0.0 9.7 0.00 0.00 0.00 100 1015.4
20260510050017 11 5 0.0 9.7 0.00 0.00 0.00 100 1015.3
20260510044532 11 40 0.0 8.0 0.00 0.00 0.00 100 1015.4
20260510043009 11 52 0.0 11.3 0.00 0.00 0.00 100 1015.3
20260510041501 11 360 0.0 8.0 0.00 0.00 0.00 100 1015.4
20260510040058 11 338 0.0 9.7 0.00 0.00 0.00 100 1015.4
20260510034556 11 44 0.0 9.7 0.00 0.00 0.00 100 1015.5
20260510033058 11 35 1.6 9.7 0.00 0.00 0.00 100 1015.5
20260510031540 12 355 0.0 16.1 0.00 0.00 0.00 100 1015.4
20260510030044 12 158 0.0 8.0 0.00 0.00 0.00 100 1015.5
20260510024532 12 28 0.0 6.4 0.00 0.00 0.00 100 1015.5
20260510023026 12 13 1.6 8.0 0.00 0.00 0.00 100 1015.5
20260510021519 12 9 0.0 6.4 0.00 0.00 0.00 100 1015.5
20260510020021 12 53 0.0 6.4 0.00 0.00 0.00 100 1015.6
20260510014510 12 329 0.0 6.4 0.00 0.00 0.00 100 1015.7
20260510013008 12 31 0.0 3.2 0.00 0.00 0.00 100 1015.7
20260510011502 12 50 0.0 8.0 0.00 0.00 0.00 100 1015.6
20260510010055 12 360 0.0 11.3 0.00 0.00 0.00 100 1015.5
20260510004551 12 31 1.6 14.5 0.00 0.00 0.00 18 1015.5
20260510003054 12 50 0.0 8.0 0.00 0.00 0.00 28 1015.6
20260510001542 12 52 1.6 12.9 0.00 0.00 0.00 31 1015.6
20260510000036 12 29 0.0 11.3 0.00 0.00 0.00 34 1015.6
20260509234542 12 13 3.2 12.9 0.00 0.00 0.00 37 1015.7
20260509233026 12 63 1.6 9.7 0.00 0.00 0.00 41 1015.8
20260509231523 13 21 0.0 9.7 0.00 0.00 0.00 45 1015.8
20260509230021 13 9 1.6 8.0 0.00 0.00 0.00 48 1015.8
20260509224511 13 17 1.6 11.3 0.00 0.00 0.00 50 1015.8
20260509223009 13 33 0.0 8.0 0.00 0.00 0.00 51 1015.8
20260509221503 13 22 1.6 9.7 0.00 0.00 0.00 52 1015.8
20260509220058 13 34 0.0 9.7 0.00 0.00 0.00 52 1015.8
20260509214552 13 27 0.0 9.7 0.00 0.00 0.00 51 1015.8
20260509213048 13 42 0.0 11.3 0.00 0.00 0.00 51 1015.8
20260509211543 13 9 0.0 8.0 0.00 0.00 0.00 51 1015.7
20260509210037 13 16 0.0 11.3 0.00 0.00 0.00 51 1015.8
20260509204532 13 355 0.0 11.3 0.00 0.00 0.00 51 1015.6
20260509203028 13 355 0.0 11.3 0.00 0.00 0.00 51 1015.5
20260509201522 14 345 0.0 9.7 0.00 0.00 0.00 51 1015.4
20260509200016 14 59 3.2 9.7 0.00 0.00 0.00 51 1015.3
20260509194514 15 360 0.0 12.9 0.00 0.00 0.00 50 1015.2
20260509193008 15 25 1.6 11.3 0.00 0.00 0.00 49 1015.3
20260509191503 16 13 0.0 11.3 0.00 0.00 0.00 49 1015.2
20260509184605 17 51 1.6 12.9 0.00 0.00 0.00 49 1015.1
20260509183048 17 58 0.0 8.0 0.00 0.00 0.00 50 1014.8
20260509181547 18 26 0.0 8.0 0.00 0.00 0.00 50 1014.7
20260509180037 19 61 1.6 11.3 0.00 0.00 0.00 48 1014.9
20260509174533 20 323 0.0 9.7 0.00 0.00 0.00 47 1014.8
20260509173028 20 21 0.0 12.9 0.00 0.00 0.00 47 1014.7
20260509171536 20 29 0.0 6.4 0.00 0.00 0.00 46 1014.7
20260509170017 21 45 0.0 3.2 0.00 0.00 0.00 44 1014.6
20260509164513 21 36 0.0 9.7 0.00 0.00 0.00 42 1014.7
20260509163009 22 27 0.0 11.3 0.00 0.00 0.00 41 1014.7
20260509161506 22 40 0.0 8.0 0.00 0.00 0.00 41 1014.7
20260509160058 22 308 0.0 9.7 0.00 0.00 0.00 42 1014.6
20260509154553 22 145 0.0 9.7 0.00 0.00 0.00 43 1014.6
20260509153051 23 40 1.6 8.0 0.00 0.00 0.00 40 1014.8
20260509151545 23 31 0.0 6.4 0.00 0.00 0.00 40 1015.1
20260509150010 23 63 0.0 11.3 0.00 0.00 0.00 42 1015.1
20260509144506 22 315 0.0 9.7 0.00 0.00 0.00 44 1015.4
20260509143102 22 59 1.6 12.9 0.00 0.00 0.00 43 1015.4
20260509141535 23 56 3.2 12.9 0.00 0.00 0.00 43 1015.2
20260509140022 23 50 0.0 9.7 0.00 0.00 0.00 44 1015.0
20260509134516 23 50 1.6 14.5 0.00 0.00 0.00 43 1014.9
20260509133012 23 34 0.0 14.5 0.00 0.00 0.00 41 1015.0
20260509131510 23 15 0.0 6.4 0.00 0.00 0.00 41 1015.2
20260509130003 23 17 0.0 8.0 0.00 0.00 0.00 41 1015.2
20260509124611 23 11 0.0 8.0 0.00 0.00 0.00 43 1015.2
20260509123058 23 274 1.6 9.7 0.00 0.00 0.00 44 1015.3
20260509121550 23 51 0.0 8.0 0.00 0.00 0.00 43 1015.6
20260509120044 22 55 0.0 9.7 0.00 0.00 0.00 46 1015.7
20260509114535 22 15 0.0 8.0 0.00 0.00 0.00 46 1015.9